NOAA 16 DEB, 41348

Orbit data source: Space-Track

NOAA 16 DEB, 41348 is space debris in SSO originally from a launch on Thu, 21 Sep 2000 UTC launched from the Air Force Western Test Range (AFWTR). Debris objects in space refer to the collection of defunct objects orbiting the Earth. Examples of debris include non-operational satellites, rocket bodies, and fragments generated from explosions, collisions, or faulty payload assembly.

Loading next visibility...
Identifier
41348, 2000-055HR
Orbit
SSO
Country
Flag of USUS
Related business
Manufacturer
Unknown
Mission
Spacecraft
Bus & Motor
Unknown
Mass
Unknown
Launch date (UTC)
2000-09-21 (25 years ago)
Launch vehicle
Unknown
Launch site
Air Force Western Test Range (AFWTR)
Object type
Payload
Rocket body
Debris
Shape & HBR
Unknown shape, 0.1 m
Radar Cross Section
Small (<0.1 m²)

Expand to show TLE details & history
Last TLE update: 1 day ago

TLE from 1 day ago
0 NOAA 16 DEB
1 41348U 00055HR  26033.30953925  .00037107  00000-0  58836-2 0  9990
2 41348  98.7892 159.7674 0013940 114.8428 245.4228 14.71978416519942
Epoch: 2026-02-02T07:25Z
TLE epoch observation values (Epoch: 2026-02-02T07:25:44.191Z)
Latitude
-0.00001°
Longitude
-84.1734°
Altitude
661.832 km
Speed
7.524 km/s
True Right ascension
10h 39m 04s
True Declination
0° 00' 00"
Sunlit
Object was in full shadow at epoch
Visualization orbit readout
Latitude
Unknown
Longitude
Unknown
Altitude
Unknown
Speed
Unknown
Apparent Right ascension
Unknown
Apparent Declination
Unknown
Sunlit
N/A
Visualization observer readout
Local Sidereal Time
14:20:22
Azimuth
Unknown
Elevation
Unknown
Doppler factor
Unknown
Orbital elements
Apogee altitude
661.653 km
Perigee altitude
642.053 km
Semi-major axis
7,029.99 km
Eccentricity
0.00139
Inclination
98.7892°
RAAN
159.7674°
Arg. of periapsis
114.8428°
True anomaly
245.27764°
Mean anomaly
245.4228°
Eccentric anomaly
245.35021°
Mean motion
3.68223 °/min
Orbital period
97.77 mins
BSTAR
0.0058836
Loading maneuver chart data...
Computing Atmospheric mass density...
Loading historical data...
Loading historical data...
Loading historical data...
Loading historical data...
Loading historical data...
Loading historical data...
Loading historical data...

Documentation

Showing up to 5 results
|